[[{"header":{"parameterUnit":"m.s-1","parameterCategory":1,"la1":30.2991,"la2":30.254,"lo1":-89.0895,"lo2":-89.0444,"dy":0.0017,"dx":0.0017,"nx":28,"ny":28,"refTime":"2023-09-05T03:00:00:Z","depth":0,"parameterNumber":2,"parameterNumberName":"U-component_of_WINDS"},"data":[0,0,0,0,0,0,0,0,0,0,0,0,0,0,0,0,0,0,0,0,0,0,0,0,0,0,0,0,0,0,0,0,0,0,0,0,0,0,0,0,0,0,0,0,0,0,0,0,0,0,0,0,0,0,0,0,0,0,-4.0409,-4.0409,0,-4.0394,-4.0394,-4.0394,-4.0328,-4.0327,-4.0325,-4.0324,-4.031,-4.0311,-4.0312,0,0,0,0,0,0,0,0,0,0,0,0,0,-4.0383,-4.0383,-4.0409,-4.0409,-4.0408,-4.0394,-4.0394,-4.0394,-4.0329,-4.0327,-4.0325,-4.0323,-4.0309,-4.0311,-4.0312,0,0,0,0,0,0,0,0,0,0,0,0,0,-4.0384,-4.0384,-4.0409,-4.0374,-4.0371,-4.0394,-4.0394,-4.0394,-4.0329,-4.0327,-4.0324,-4.0322,-4.0309,-4.031,-4.0312,-4.0368,0,0,-4.0317,-4.0317,0,0,0,0,0,0,0,0,-4.0384,-4.0385,-4.038,-4.0377,-4.0373,-4.0361,-4.0379,-4.0385,-4.033,-4.0345,-4.0324,-4.0321,-4.0329,-4.0328,-4.0331,-4.0367,-4.0366,-4.0317,-4.0318,-4.0319,-4.0319,0,0,0,0,0,0,0,-4.0384,-4.0385,-4.0403,-4.038,-4.0376,-4.036,-4.0358,-4.038,-4.035,-4.0343,-4.0339,-4.0338,-4.0326,-4.0329,-4.033,-4.0366,-4.0317,-4.0318,-4.0319,-4.032,-4.0448,-4.045,0,0,0,0,0,0,-4.0388,-4.0385,-4.0403,-4.0403,-4.0373,-4.0362,-4.036,-4.0367,-4.0349,-4.0345,-4.034,-4.0335,-4.0328,-4.0328,-4.0329,-4.0392,-4.0319,-4.032,-4.0321,-4.0445,-4.0448,-4.0451,0,0,0,0,0,0,-4.0388,-4.0391,-4.0404,-4.0393,-4.0393,-4.0365,-4.0374,-4.0368,-4.0371,-4.0347,-4.0341,-4.0348,-4.0326,-4.0327,-4.0358,-4.0391,-4.0321,-4.0322,-4.0442,-4.0446,-4.045,-4.052,0,0,0,0,0,0,-4.0388,-4.0391,-4.0411,-4.0394,-4.0394,-4.0433,-4.0376,-4.0369,-4.0373,-4.0367,-4.0353,-4.0348,-4.0324,-4.0357,-4.036,-4.0392,-4.0323,-4.0439,-4.0444,-4.0448,-4.0515,-4.0526,-4.0535,0,0,0,0,0,-4.0387,-4.0431,-4.0412,-4.0415,-4.0419,-4.0435,-4.0435,-4.0406,-4.0376,-4.0397,-4.0382,-4.0349,-4.0388,-4.036,-4.0364,-4.0397,-4.0437,-4.0443,-4.0448,-4.051,-4.0524,-4.0535,0,0,0,0,0,0,-4.0453,-4.0428,-4.0407,-4.0447,-4.0444,-4.0424,-4.0448,-4.0422,-4.0427,-4.042,-4.0384,-4.0382,-4.0419,-4.0411,-4.0381,-4.045,-4.0407,-4.0413,-4.0453,-4.0465,-4.0476,-4.0476,-4.0325,0,0,0,0,0,-4.0473,-4.0488,-4.0466,-4.0503,-4.0503,-4.0477,-4.0483,-4.0461,-4.0456,-4.0454,-4.0441,-4.0438,-4.0449,-4.0457,-4.0466,-4.0514,-4.051,-4.0539,-4.0549,-4.0558,-4.0563,-4.0588,-4.06,-4.0469,-4.0469,-4.0469,0,0,-4.0512,-4.0501,-4.0512,-4.0516,-4.0511,-4.0528,-4.0475,-4.0495,-4.0507,-4.0457,-4.0485,-4.0477,-4.0471,-4.0511,-4.0528,-4.0505,-4.0599,-4.0565,-4.0572,-4.0572,-4.0595,-4.0607,-4.0618,-4.0473,-4.0472,-4.0472,0,0,-4.0593,-4.0587,-4.0617,-4.0613,-4.0606,-4.0589,-4.0596,-4.0581,-4.0573,-4.0602,-4.0564,-4.0579,-4.0599,-4.0597,-4.0598,-4.0681,-4.0651,-4.0685,-4.0738,-4.0762,-4.0773,-4.0782,-4.081,-4.0821,-4.0691,-4.0691,-4.0692,0,-4.0643,-4.0667,-4.0636,-4.0659,-4.0662,-4.0618,-4.0649,-4.0647,-4.0643,-4.0647,-4.0622,-4.0647,-4.064,-4.0679,-4.0699,-4.0703,-4.071,-4.0685,-4.0774,-4.0782,-4.079,-4.0817,-4.0828,-4.0695,-4.0695,-4.0695,-4.0694,0,-4.0729,-4.0746,-4.0772,-4.0769,-4.0776,-4.0802,-4.0776,-4.0787,-4.0765,-4.0751,-4.0781,-4.0772,-4.0778,-4.0786,-4.0765,-4.0823,-4.0809,-4.078,-4.0736,-4.0807,-4.0832,-4.0842,-4.0701,-4.07,-4.0699,-4.0698,0,0,-4.0848,-4.083,-4.084,-4.0839,-4.0829,-4.0842,-4.0867,-4.0874,-4.0883,-4.0883,-4.0903,-4.0923,-4.0896,-4.0898,-4.0877,-4.0899,-4.0965,-4.0867,-4.0866,-4.0884,-4.1026,-4.1047,-4.1059,-4.0946,-4.0948,-4.0949,-4.1026,0,-4.0924,-4.0965,-4.094,-4.0985,-4.1001,-4.0961,-4.0983,-4.098,-4.0968,-4.098,-4.0967,-4.0981,-4.0945,-4.0946,-4.0966,-4.0952,-4.0992,-4.0947,-4.0964,-4.0965,-4.0964,-4.1072,-4.1094,-4.1167,-4.1036,-4.1037,-4.1039,0,-4.1018,-4.1022,-4.1069,-4.1057,-4.1063,-4.1083,-4.1087,-4.11,-4.1096,-4.1085,-4.1089,-4.1063,-4.1088,-4.1046,-4.108,-4.1049,-4.1056,-4.105,-4.1053,-4.1051,-4.1004,-4.1072,-4.1189,-4.12,-4.1054,-4.1053,-4.1051,0,-4.1098,-4.1116,-4.1147,-4.1147,-4.1134,-4.115,-4.1145,-4.1139,-4.1145,-4.115,-4.1153,-4.1161,-4.1165,-4.1171,-4.1148,-4.112,-4.1185,-4.1142,-4.1177,-4.1178,-4.119,-4.119,-4.1308,-4.1198,-4.1198,-4.1198,-4.1197,0,-4.1185,-4.1215,-4.1183,-4.1201,-4.1234,-4.1206,-4.124,-4.1231,-4.1226,-4.1243,-4.121,-4.1226,-4.1196,-4.1209,-4.1192,-4.1222,-4.1225,-4.1217,-4.1212,-4.1219,-4.122,-4.1221,-4.1214,-4.12,-4.12,-4.1199,-4.1199,0,-4.1279,-4.1259,-4.129,-4.1276,-4.1273,-4.1298,-4.1286,-4.1303,-4.129,-4.1311,-4.1315,-4.1294,-4.1308,-4.1287,-4.1299,-4.1287,-4.1329,-4.1317,-4.133,-4.1326,-4.1362,-4.1358,-4.1484,-4.1498,-4.138,-4.1382,-4.1382,0,-4.1335,-4.1357,-4.1346,-4.1355,-4.1352,-4.1367,-4.1373,-4.1346,-4.1354,-4.1353,-4.137,-4.1382,-4.1389,-4.1415,-4.1401,-4.141,-4.1397,-4.1441,-4.1398,-4.1405,-4.1396,-4.1394,-4.1396,-4.1449,-4.145,-4.1451,-4.1452,0,-4.1435,-4.1424,-4.1434,-4.1441,-4.145,-4.1454,-4.1456,-4.1465,-4.1437,-4.1448,-4.1462,-4.1469,-4.1482,-4.1494,-4.15,-4.1496,-4.1469,-4.1466,-4.1474,-4.1481,-4.1487,-4.1483,-4.1352,-4.1463,-4.1462,-4.1461,-4.146,-4.146,-4.151,-4.1529,-4.1524,-4.1536,-4.1535,-4.1538,-4.1553,-4.1543,-4.1554,-4.1562,-4.1547,-4.1565,-4.1562,-4.1568,-4.1567,-4.1581,-4.1562,-4.1575,-4.1577,-4.158,-4.1585,-4.1487,-4.1582,-4.1582,-4.1582,-4.1582,-4.1581,0,-4.1608,-4.1603,-4.1615,-4.1619,-4.1629,-4.1605,-4.1606,-4.1616,-4.1633,-4.1632,-4.1641,-4.1658,-4.167,-4.1658,-4.1668,-4.1682,-4.167,-4.1685,-4.1683,-4.1682,-4.1602,-4.1593,-4.1695,-4.1695,-4.1695,-4.1695,-4.1695,-4.1695,-4.1659,-4.1689,-4.1678,-4.1707,-4.1702,-4.172,-4.1723,-4.1725,-4.1725,-4.1745,-4.1755,-4.1748,-4.1743,-4.1752,-4.1762,-4.1759,-4.1763,-4.1782,-4.1774,-4.1699,-4.1688,-4.1677,-4.1669,-4.1784,-4.1784,-4.1853,-4.1853,-4.1854]},{"header":{"parameterUnit":"m.s-1","parameterCategory":1,"la1":30.2991,"la2":30.254,"lo1":-89.0895,"lo2":-89.0444,"dy":0.0017,"dx":0.0017,"nx":28,"ny":28,"refTime":"2023-09-05T03:00:00:Z","depth":0,"parameterNumber":3,"parameterNumberName":"V-component_of_WINDS"},"data":[0,0,0,0,0,0,0,0,0,0,0,0,0,0,0,0,0,0,0,0,0,0,0,0,0,0,0,0,0,0,0,0,0,0,0,0,0,0,0,0,0,0,0,0,0,0,0,0,0,0,0,0,0,0,0,0,0,0,3.0831,3.0831,0,3.0882,3.0883,3.0883,3.0926,3.0927,3.0927,3.0928,3.0976,3.0977,3.0978,0,0,0,0,0,0,0,0,0,0,0,0,0,3.0766,3.0767,3.0831,3.0831,3.0832,3.0882,3.0883,3.0884,3.0926,3.0927,3.0927,3.0928,3.0976,3.0977,3.0978,0,0,0,0,0,0,0,0,0,0,0,0,0,3.0803,3.0767,3.0831,3.0859,3.0862,3.0882,3.0883,3.0884,3.0926,3.0927,3.0927,3.0928,3.0976,3.0977,3.0978,3.0972,0,0,3.0982,3.0983,0,0,0,0,0,0,0,0,3.0801,3.0806,3.0854,3.0857,3.0861,3.0899,3.0878,3.0913,3.0926,3.0902,3.0928,3.0928,3.095,3.0953,3.0961,3.0975,3.0977,3.0982,3.0983,3.0984,3.0984,0,0,0,0,0,0,0,3.0798,3.0804,3.0851,3.0855,3.0859,3.0869,3.0875,3.0885,3.0921,3.0904,3.0907,3.0913,3.0952,3.096,3.0963,3.0978,3.0982,3.0984,3.0984,3.0985,3.0989,3.0989,0,0,0,0,0,0,3.0792,3.0801,3.0849,3.0853,3.0832,3.0869,3.0876,3.0886,3.0921,3.0927,3.0912,3.0915,3.0957,3.0961,3.0965,3.0961,3.0984,3.0985,3.0986,3.099,3.0989,3.0989,0,0,0,0,0,0,3.079,3.0796,3.0847,3.0828,3.0835,3.087,3.088,3.0886,3.0895,3.0927,3.0934,3.0914,3.0958,3.0963,3.0971,3.0963,3.0986,3.0987,3.0991,3.099,3.0989,3.0952,0,0,0,0,0,0,3.0788,3.0795,3.0794,3.0827,3.0836,3.0853,3.088,3.0887,3.0897,3.0901,3.0931,3.0937,3.0959,3.0968,3.0972,3.0965,3.0988,3.0992,3.099,3.0989,3.0954,3.095,3.0946,0,0,0,0,0,3.0786,3.078,3.0793,3.0799,3.0835,3.0853,3.0857,3.0884,3.0897,3.0895,3.0916,3.0936,3.0963,3.0969,3.0973,3.0966,3.0992,3.0991,3.0989,3.0956,3.0951,3.0946,0,0,0,0,0,0,3.0743,3.0785,3.08,3.0806,3.0825,3.086,3.0859,3.0878,3.0894,3.0896,3.0928,3.0934,3.0939,3.0953,3.0959,3.0963,3.098,3.098,3.0953,3.0949,3.0945,3.0941,3.0989,0,0,0,0,0,3.0734,3.0746,3.0782,3.0783,3.0792,3.0824,3.0832,3.0852,3.0873,3.0881,3.0903,3.0922,3.0935,3.0942,3.0956,3.0956,3.0963,3.0954,3.095,3.0947,3.0946,3.0947,3.0943,3.0984,3.0984,3.0984,0,0,3.0716,3.0741,3.0746,3.0775,3.0793,3.0803,3.0831,3.084,3.0848,3.0882,3.0892,3.0908,3.0931,3.0935,3.0938,3.0948,3.0936,3.0945,3.0942,3.0943,3.0945,3.0941,3.0938,3.0983,3.0983,3.0983,0,0,3.0689,3.0709,3.0712,3.073,3.0757,3.0778,3.0779,3.0811,3.0824,3.0834,3.086,3.0869,3.0891,3.0906,3.0917,3.0897,3.0915,3.09,3.088,3.0881,3.0878,3.0875,3.0868,3.0865,3.0899,3.0899,3.0899,0,3.0663,3.0681,3.0711,3.072,3.0732,3.0765,3.0769,3.0784,3.0813,3.082,3.0831,3.0859,3.0877,3.0886,3.0881,3.0888,3.089,3.0897,3.0876,3.0874,3.0871,3.0865,3.0862,3.0897,3.0897,3.0897,3.0897,0,3.0648,3.066,3.0659,3.0689,3.0701,3.0707,3.0737,3.0745,3.0764,3.0783,3.0793,3.0816,3.0835,3.0839,3.0856,3.085,3.0855,3.087,3.0888,3.0865,3.086,3.0857,3.0894,3.0895,3.0895,3.0896,0,0,3.0594,3.0641,3.0641,3.0655,3.0687,3.0697,3.0704,3.0725,3.0731,3.075,3.0757,3.0775,3.079,3.0802,3.0821,3.0822,3.0805,3.0837,3.0838,3.0831,3.08,3.0788,3.0785,3.0818,3.0817,3.0817,3.0798,0,3.0572,3.0589,3.0617,3.0624,3.0636,3.0667,3.0674,3.0694,3.0713,3.0724,3.0745,3.0757,3.0775,3.0783,3.0786,3.0807,3.0799,3.0808,3.0823,3.0824,3.0817,3.0782,3.077,3.0751,3.0796,3.0796,3.0796,0,3.0549,3.0568,3.0577,3.061,3.0615,3.0621,3.0642,3.0653,3.0676,3.069,3.0704,3.0726,3.0735,3.0751,3.0763,3.0769,3.0777,3.0788,3.0788,3.079,3.0808,3.0784,3.0746,3.0743,3.0792,3.0793,3.0793,0,3.0509,3.0537,3.0547,3.0557,3.0596,3.0599,3.0614,3.0639,3.0649,3.0667,3.0675,3.0693,3.0703,3.0716,3.0742,3.0751,3.0751,3.077,3.0762,3.0761,3.076,3.076,3.0723,3.0765,3.0765,3.0765,3.0765,0,3.0482,3.0486,3.053,3.0535,3.0541,3.0572,3.0577,3.0595,3.0616,3.0626,3.0653,3.0661,3.0694,3.0706,3.0726,3.0733,3.0737,3.0748,3.0753,3.0745,3.0744,3.0751,3.0753,3.0764,3.0765,3.0765,3.0765,0,3.0439,3.0468,3.048,3.0516,3.0525,3.0528,3.0558,3.0564,3.0585,3.0596,3.06,3.0632,3.0647,3.0674,3.0696,3.071,3.0712,3.0721,3.0705,3.0708,3.0699,3.07,3.0666,3.0663,3.0706,3.0705,3.0705,0,3.042,3.0424,3.0461,3.047,3.0485,3.0499,3.051,3.0541,3.0552,3.0579,3.0582,3.06,3.0615,3.0637,3.0662,3.0679,3.0688,3.0675,3.0691,3.0684,3.0689,3.0688,3.0689,3.0672,3.0671,3.067,3.067,0,3.0383,3.0397,3.0414,3.0435,3.0449,3.0467,3.0486,3.0491,3.0526,3.0537,3.0553,3.0565,3.0589,3.0606,3.0626,3.0642,3.0661,3.0665,3.0664,3.0656,3.0647,3.0652,3.0695,3.0666,3.0666,3.0666,3.0667,3.0667,3.0352,3.0357,3.0384,3.0401,3.042,3.0437,3.0445,3.0467,3.0482,3.0505,3.0522,3.0537,3.056,3.0591,3.0605,3.0616,3.0625,3.0624,3.0624,3.0623,3.062,3.0645,3.062,3.062,3.062,3.062,3.062,0,3.0316,3.0336,3.0351,3.0378,3.0392,3.0411,3.0433,3.0443,3.0456,3.0477,3.0493,3.0511,3.0528,3.0554,3.0573,3.0577,3.0586,3.0581,3.0581,3.0584,3.0611,3.061,3.0573,3.0573,3.0573,3.0573,3.0573,3.0573,3.03,3.031,3.0328,3.0348,3.0367,3.0383,3.0394,3.041,3.0427,3.0448,3.0462,3.048,3.0502,3.0523,3.0539,3.0546,3.0551,3.0543,3.0553,3.0577,3.0582,3.0586,3.0585,3.0544,3.0544,3.0525,3.0525,3.0525]}]]